When you browse on this site, cookies collect data to enhance your experience and personalize the content and advertising you see.
Visit our Privacy Policy to learn more. By continuing to use the site, you agree to this use of cookies and data.
  • In Hungary
  • List of Countries
  • For 7 days
  • Water Temperature
  • Satellite Maps
  • Weather Map
  • News
  • Weather Widgets
  • user-avatar
    Login

    Hourly Weather Suhie Kurnali

    Today, 25 May, Saturday

    Time Temperature Precipitation Wind Pressure Humidity
    00:00 +5°C° 0 mm 1 mps 753 mmHg 68%
    01:00 +4°C° 0 mm 1 mps 753 mmHg 68%
    02:00 +4°C° 0 mm 1 mps 754 mmHg 68%
    03:00 +2°C° 0 mm 0 mps 754 mmHg 69%
    04:00 +3°C° 0 mm 0 mps 754 mmHg 67%
    05:00 +5°C° 0 mm 0 mps 754 mmHg 65%
    06:00 +6°C° 0 mm 0 mps 755 mmHg 63%
    07:00 +7°C° 0 mm 0 mps 755 mmHg 59%
    08:00 +8°C° 0 mm 0 mps 755 mmHg 55%
    09:00 +9°C° 0 mm 0 mps 755 mmHg 51%
    10:00 +11°C° 0 mm 1 mps 755 mmHg 49%
    11:00 +12°C° 0 mm 1 mps 755 mmHg 47%
    12:00 +12°C° 0 mm 1 mps 755 mmHg 45%
    13:00 +13°C° 0 mm 1 mps 755 mmHg 45%
    14:00 +13°C° 0 mm 1 mps 754 mmHg 45%
    15:00 +14°C° 0 mm 1 mps 754 mmHg 45%
    16:00 +13°C° 0 mm 1 mps 754 mmHg 50%
    17:00 +13°C° 0 mm 1 mps 754 mmHg 55%
    18:00 +13°C° 0 mm 1 mps 753 mmHg 60%
    19:00 +12°C° 0 mm 2 mps 753 mmHg 64%
    20:00 +9°C° 0 mm 2 mps 753 mmHg 67%
    21:00 +8°C° 0 mm 3 mps 753 mmHg 70%
    22:00 +8°C° 0 mm 3 mps 753 mmHg 71%
    23:00 +7°C° 0 mm 3 mps 753 mmHg 71%

    Tomorrow, 26 May, Sunday

    Time Temperature Precipitation Wind Pressure Humidity
    00:00 +6°C° 0 mm 4 mps 753 mmHg 71%
    01:00 +6°C° 0 mm 4 mps 753 mmHg 71%
    02:00 +5°C° 0 mm 4 mps 753 mmHg 70%
    03:00 +5°C° 0 mm 5 mps 753 mmHg 70%
    04:00 +6°C° 0 mm 5 mps 753 mmHg 69%
    05:00 +7°C° 0 mm 6 mps 752 mmHg 69%
    06:00 +8°C° 0 mm 6 mps 752 mmHg 68%
    07:00 +9°C° 0 mm 6 mps 752 mmHg 65%
    08:00 +11°C° 0 mm 7 mps 752 mmHg 62%
    09:00 +12°C° 0 mm 7 mps 751 mmHg 58%
    10:00 +14°C° 0 mm 7 mps 751 mmHg 56%
    11:00 +16°C° 0 mm 7 mps 751 mmHg 54%
    12:00 +17°C° 0 mm 6 mps 750 mmHg 53%
    13:00 +17°C° 0 mm 6 mps 750 mmHg 54%
    14:00 +19°C° 0 mm 6 mps 749 mmHg 55%
    15:00 +20°C° 0 mm 6 mps 749 mmHg 56%
    16:00 +19°C° 0 mm 6 mps 748 mmHg 61%
    17:00 +17°C° 0 mm 5 mps 748 mmHg 67%
    18:00 +16°C° 0 mm 5 mps 747 mmHg 73%
    19:00 +16°C° 0 mm 5 mps 747 mmHg 74%
    20:00 +15°C° 0 mm 5 mps 747 mmHg 75%
    21:00 +15°C° 0 mm 5 mps 747 mmHg 76%
    22:00 +15°C° 0.7 mm 5 mps 746 mmHg 79%
    23:00 +14°C° 0.7 mm 5 mps 746 mmHg 82%

    Day after tomorrow, 27 May, Monday

    Time Temperature Precipitation Wind Pressure Humidity
    00:00 +14°C° 0.7 mm 5 mps 746 mmHg 85%
    01:00 +13°C° 0.1 mm 6 mps 745 mmHg 86%
    02:00 +13°C° 0.1 mm 6 mps 745 mmHg 88%
    03:00 +13°C° 0.1 mm 6 mps 745 mmHg 89%
    04:00 +13°C° 0.3 mm 6 mps 745 mmHg 89%
    05:00 +14°C° 0.3 mm 7 mps 745 mmHg 90%
    06:00 +14°C° 0.3 mm 7 mps 744 mmHg 91%
    07:00 +14°C° 0.3 mm 7 mps 745 mmHg 91%
    08:00 +15°C° 0.3 mm 7 mps 745 mmHg 91%
    09:00 +15°C° 0.3 mm 7 mps 745 mmHg 90%
    10:00 +16°C° 0.1 mm 7 mps 745 mmHg 89%
    11:00 +16°C° 0.1 mm 7 mps 745 mmHg 87%
    12:00 +17°C° 0.1 mm 7 mps 745 mmHg 85%
    13:00 +18°C° 0.3 mm 7 mps 746 mmHg 83%
    14:00 +19°C° 0.3 mm 6 mps 746 mmHg 81%
    15:00 +20°C° 0.3 mm 6 mps 746 mmHg 78%
    16:00 +20°C° 0.2 mm 5 mps 746 mmHg 80%
    17:00 +20°C° 0.2 mm 4 mps 747 mmHg 81%
    18:00 +19°C° 0.2 mm 3 mps 747 mmHg 82%
    19:00 +18°C° 0 mm 3 mps 747 mmHg 85%
    20:00 +17°C° 0 mm 3 mps 748 mmHg 87%
    21:00 +16°C° 0 mm 3 mps 749 mmHg 89%
    22:00 +14°C° 0 mm 3 mps 749 mmHg 89%
    23:00 +13°C° 0 mm 3 mps 749 mmHg 90%

    28 May, Tuesday

    Time Temperature Precipitation Wind Pressure Humidity
    00:00 +12°C° 0 mm 3 mps 750 mmHg 90%
    01:00 +13°C° 0 mm 2 mps 750 mmHg 89%
    02:00 +13°C° 0 mm 2 mps 750 mmHg 88%
    03:00 +12°C° 0 mm 2 mps 751 mmHg 88%
    04:00 +13°C° 0 mm 2 mps 751 mmHg 86%
    05:00 +14°C° 0 mm 2 mps 752 mmHg 83%
    06:00 +15°C° 0 mm 2 mps 752 mmHg 81%
    07:00 +16°C° 0 mm 2 mps 752 mmHg 76%
    08:00 +17°C° 0 mm 2 mps 753 mmHg 72%
    09:00 +19°C° 0 mm 2 mps 753 mmHg 67%
    10:00 +20°C° 0 mm 2 mps 753 mmHg 64%
    11:00 +20°C° 0 mm 3 mps 753 mmHg 60%
    12:00 +21°C° 0 mm 3 mps 753 mmHg 57%
    13:00 +22°C° 0 mm 3 mps 753 mmHg 58%
    14:00 +22°C° 0 mm 3 mps 753 mmHg 59%
    15:00 +22°C° 0 mm 4 mps 753 mmHg 59%
    16:00 +22°C° 0 mm 3 mps 753 mmHg 64%
    17:00 +21°C° 0 mm 3 mps 753 mmHg 68%
    18:00 +21°C° 0 mm 2 mps 753 mmHg 72%
    19:00 +20°C° 0 mm 2 mps 753 mmHg 75%
    20:00 +18°C° 0 mm 3 mps 753 mmHg 78%
    21:00 +17°C° 0 mm 3 mps 753 mmHg 81%
    22:00 +17°C° 0 mm 3 mps 753 mmHg 83%
    23:00 +16°C° 0 mm 3 mps 754 mmHg 85%

    29 May, Wednesday

    Time Temperature Precipitation Wind Pressure Humidity
    00:00 +16°C° 0 mm 3 mps 754 mmHg 88%
    01:00 +14°C° 0 mm 3 mps 754 mmHg 89%
    02:00 +14°C° 0 mm 3 mps 754 mmHg 91%
    03:00 +14°C° 0 mm 3 mps 754 mmHg 93%
    04:00 +16°C° 0 mm 3 mps 754 mmHg 90%
    05:00 +17°C° 0 mm 3 mps 754 mmHg 88%
    06:00 +18°C° 0 mm 3 mps 754 mmHg 86%
    07:00 +19°C° 0 mm 3 mps 754 mmHg 81%
    08:00 +20°C° 0 mm 3 mps 755 mmHg 77%
    09:00 +22°C° 0 mm 3 mps 755 mmHg 73%
    10:00 +23°C° 0 mm 4 mps 754 mmHg 70%
    11:00 +23°C° 0 mm 4 mps 754 mmHg 66%
    12:00 +25°C° 0 mm 4 mps 754 mmHg 63%
    13:00 +26°C° 0 mm 4 mps 754 mmHg 63%
    14:00 +26°C° 0 mm 4 mps 754 mmHg 63%
    15:00 +26°C° 0 mm 5 mps 753 mmHg 62%
    16:00 +26°C° 0 mm 4 mps 753 mmHg 66%
    17:00 +25°C° 0 mm 4 mps 753 mmHg 70%
    18:00 +25°C° 0 mm 3 mps 753 mmHg 74%
    19:00 +22°C° 0 mm 3 mps 753 mmHg 78%
    20:00 +21°C° 0 mm 3 mps 754 mmHg 81%
    21:00 +20°C° 0 mm 3 mps 754 mmHg 85%
    22:00 +19°C° 0 mm 3 mps 754 mmHg 86%
    23:00 +19°C° 0 mm 3 mps 754 mmHg 88%

    30 May, Thursday

    Time Temperature Precipitation Wind Pressure Humidity
    00:00 +18°C° 0 mm 3 mps 754 mmHg 90%
    01:00 +18°C° 0 mm 3 mps 754 mmHg 91%
    02:00 +17°C° 0 mm 3 mps 754 mmHg 92%
    03:00 +17°C° 0 mm 2 mps 754 mmHg 93%
    04:00 +18°C° 0 mm 3 mps 754 mmHg 91%
    05:00 +19°C° 0 mm 3 mps 754 mmHg 89%
    06:00 +20°C° 0 mm 3 mps 754 mmHg 87%
    07:00 +21°C° 0 mm 3 mps 754 mmHg 83%
    08:00 +24°C° 0 mm 3 mps 754 mmHg 78%
    09:00 +25°C° 0 mm 3 mps 754 mmHg 74%
    10:00 +26°C° 0 mm 3 mps 754 mmHg 70%
    11:00 +27°C° 0 mm 3 mps 754 mmHg 65%
    12:00 +28°C° 0 mm 4 mps 754 mmHg 61%
    13:00 +28°C° 0 mm 3 mps 754 mmHg 61%
    14:00 +28°C° 0 mm 3 mps 754 mmHg 60%
    15:00 +28°C° 0 mm 3 mps 754 mmHg 59%
    16:00 +28°C° 0 mm 3 mps 753 mmHg 63%
    17:00 +27°C° 0 mm 3 mps 753 mmHg 66%
    18:00 +26°C° 0 mm 2 mps 753 mmHg 70%
    19:00 +25°C° 0 mm 2 mps 753 mmHg 73%
    20:00 +24°C° 0 mm 2 mps 753 mmHg 76%
    21:00 +22°C° 0 mm 3 mps 753 mmHg 78%
    22:00 +21°C° 0 mm 2 mps 753 mmHg 81%
    23:00 +20°C° 0 mm 2 mps 753 mmHg 84%
    Show more